Powrót do katalogu

STARLINK-35874

AktywnyŁącznośćVLEO
NORAD 66962·PAYLOAD·🇺🇸 United States

Wystrzelony Dec 8, 2025 z Cape Canaveral Space Force Station

Loading…

Następne Przeloty (najbliższe 24 godziny)

TLE

ŚwieżeSource: CelesTrak SupGP

Epoka: Sep 15, 2026, 03:17 UTC

1 66962C 25288D   26258.13729167 -.00006720  00000+0 -24336-3 0  2588
2 66962  43.0023  33.9854 0001728 268.0670 174.5803 15.27585940    17

Śledź STARLINK-35874 w czasie rzeczywistym z AllMySat

Download on the App Store